Wind_Speed
18 18 17 16 16 15 16 18 17 16 14 12 11 10 9 8 7 6 5 4 4 5 6 6 7 7 7 8 9 10 10 10 10 9 9 8 7 7 6 4 3 2 2 2 1 1 1 2 2
19 18 18 17 16 15 17 20 19 18 15 13 12 11 10 8 8 7 5 5 4 4 5 6 7 8 8 9 10 10 11 11 11 10 9 9 9 8 8 6 5 4 4 3 3 3 2 2 2
19 19 18 18 17 17 20 22 21 19 16 14 13 12 11 10 8 7 6 5 5 5 5 5 6 7 8 9 10 11 11 12 11 11 11 11 10 9 9 8 7 6 6 5 5 4 4 3 3
19 19 19 18 18 21 23 23 22 20 18 16 14 13 12 10 10 9 8 7 6 6 5 6 6 7 9 9 11 12 12 12 13 13 13 12 12 11 10 10 9 8 8 7 7 6 6 5 5
19 19 19 19 20 22 24 24 23 20 18 17 15 15 13 12 11 10 8 7 7 7 7 7 7 8 9 10 11 12 12 13 13 14 13 13 13 13 12 12 11 10 10 9 9 8 8 7 7
19 19 18 19 21 23 24 24 23 21 19 18 16 16 15 13 12 11 9 8 8 7 8 8 8 9 9 10 11 12 13 13 14 14 14 14 14 13 13 13 13 12 12 11 11 11 10 9 8
19 18 18 20 22 24 25 25 24 22 20 19 17 16 16 14 13 11 10 10 9 8 9 9 9 10 10 11 12 12 13 13 13 14 15 15 14 14 14 14 14 14 14 13 13 12 12 11 10
18 18 19 21 23 25 25 25 25 23 22 20 18 17 17 16 13 12 11 12 12 11 10 10 10 11 11 12 12 13 14 15 14 15 15 15 16 15 15 16 16 15 15 15 15 14 14 13 12
18 18 19 22 24 25 26 26 25 24 23 21 20 19 18 16 14 13 13 13 13 12 12 12 12 13 13 13 13 14 15 15 15 16 17 17 17 17 17 17 16 16 16 16 16 16 16 15 14
17 18 21 23 24 25 26 26 25 23 23 21 20 20 19 17 15 15 14 14 15 14 14 14 14 13 14 15 15 16 16 16 17 17 18 18 19 18 18 18 17 17 17 17 17 17 17 17 16
17 19 20 21 23 24 25 25 25 23 23 22 22 21 20 18 17 17 17 16 17 16 16 16 15 15 15 16 17 18 19 19 19 19 20 20 19 20 20 19 19 19 19 19 18 18 18 18 18
17 18 19 20 22 23 24 24 24 24 24 22 22 21 20 20 19 19 18 18 18 19 18 17 17 17 17 17 18 18 19 20 21 21 22 22 21 21 21 21 21 21 21 21 21 21 20 20 20
16 17 18 19 21 22 23 23 23 22 22 22 21 20 20 19 20 21 20 20 20 20 20 20 19 18 18 18 19 19 20 20 22 24 24 23 22 22 23 23 23 22 22 22 22 22 22 21 21
16 17 17 19 20 21 22 22 22 22 22 21 21 20 20 20 20 20 21 21 21 21 22 21 20 20 20 20 20 21 21 22 22 24 25 25 25 24 25 25 25 24 24 24 24 24 23 23 22
16 17 17 18 19 20 20 21 21 21 21 21 20 20 20 21 22 22 22 22 22 22 22 21 21 21 20 21 21 22 23 23 24 24 25 26 27 27 26 26 26 26 26 26 26 26 25 24 24
15 16 16 18 18 19 18 19 21 20 20 20 20 20 21 21 23 23 23 23 22 22 22 22 22 21 21 21 22 22 23 24 25 26 27 26 26 26 27 27 27 28 27 28 28 28 27 26 25
14 14 15 18 18 17 17 19 20 20 20 19 20 20 21 21 22 22 23 23 23 22 23 23 22 22 22 23 23 24 24 25 26 27 27 28 27 26 27 28 28 29 29 29 30 29 29 28 28
14 15 16 17 17 17 17 19 19 19 18 19 20 20 20 21 21 21 21 22 23 23 23 23 23 23 24 24 24 25 25 25 26 27 28 29 28 27 28 29 30 30 29 30 30 30 30 30 29
15 14 15 17 16 16 17 18 18 18 18 19 19 20 21 20 20 21 21 21 23 23 23 24 24 24 24 25 25 25 26 26 27 27 28 29 29 28 28 28 29 31 31 31 32 31 31 30 30
12 13 14 15 15 15 15 16 17 17 18 18 18 18 19 19 19 20 20 21 22 22 23 24 25 26 26 26 26 26 27 27 28 28 29 28 28 29 29 29 29 30 31 32 33 33 32 31 31
11 12 14 14 14 14 14 15 16 16 16 17 17 17 18 19 20 20 20 20 21 22 22 23 24 26 26 26 26 26 27 27 28 29 29 29 29 29 29 30 31 31 31 31 32 32 32 32 31
11 12 14 14 12 13 12 12 16 15 16 16 17 17 18 19 20 20 21 21 22 22 23 24 24 25 25 26 26 26 27 28 28 29 29 29 30 30 31 31 31 32 32 32 32 32 32 32 32
11 11 12 13 12 13 13 11 15 16 17 18 19 19 19 20 21 21 22 22 22 23 23 24 24 25 26 26 27 27 27 28 28 29 28 28 29 30 31 31 32 32 32 33 33 33 32 31 32
10 10 11 11 11 12 12 11 13 15 17 17 18 19 20 21 21 21 21 22 23 24 24 25 25 25 26 26 27 27 27 28 28 28 28 28 29 30 30 31 32 32 32 32 32 31 31 31 31
10 8 7 8 9 11 13 12 13 15 16 17 18 19 19 21 21 22 22 23 24 25 26 26 27 26 26 26 27 27 28 28 28 29 29 29 29 29 30 30 31 32 32 31 31 31 31 31 32
10 9 9 10 10 11 14 13 15 15 16 17 17 18 19 20 22 22 23 24 25 25 26 26 27 27 27 27 28 28 29 29 29 29 30 29 29 29 29 30 30 30 31 31 31 32 31 32 32
11 11 11 11 11 11 13 15 16 16 17 17 18 18 18 19 21 22 23 23 24 24 25 25 26 27 28 29 29 28 29 29 29 30 30 31 31 31 30 29 28 29 29 31 31 32 32 33 33
13 13 12 11 12 12 13 15 15 15 16 17 17 17 18 19 20 21 21 22 23 24 24 25 26 26 27 28 28 28 29 30 30 30 30 30 31 30 30 29 29 29 29 31 32 31 31 32 33
13 14 14 13 13 12 12 14 15 15 16 16 17 18 19 20 21 21 22 22 22 23 24 24 25 26 27 27 28 28 28 29 29 30 30 30 30 29 29 28 29 29 29 30 30 31 31 31 33
14 14 13 13 13 13 13 15 17 16 17 17 18 19 20 21 21 21 22 22 23 23 24 24 25 25 26 26 26 26 26 27 28 28 28 28 28 28 27 27 27 28 28 28 29 29 31 31 31
Wind_Direction
257 254 251 247 243 239 235 239 240 238 234 227 220 218 213 207 197 198 210 209 207 209 211 216 216 219 219 223 228 232 232 231 233 234 231 228 224 225 229 226 230 239 255 264 284 301 318 342 352
256 253 249 245 240 234 235 238 237 238 236 230 225 225 226 217 213 208 214 217 221 223 225 226 223 226 228 227 229 231 232 235 236 236 236 235 234 235 237 238 243 245 251 258 266 261 262 283 298
255 251 248 244 237 227 231 236 238 240 236 232 230 229 231 229 227 225 229 235 240 246 246 240 234 232 235 236 234 234 234 233 236 237 239 242 240 241 243 243 244 247 254 257 258 255 257 265 271
253 250 247 242 236 233 234 237 239 238 236 235 233 232 234 238 237 240 242 246 252 259 256 250 245 243 241 241 237 235 237 236 237 239 242 243 243 244 244 244 243 247 250 250 252 255 258 260 262
252 248 245 240 236 235 237 238 237 237 236 236 233 236 239 243 242 245 247 257 262 265 267 258 253 252 247 245 241 238 238 240 243 242 243 243 243 242 243 242 243 245 247 248 248 250 255 256 256
250 246 241 236 234 235 235 236 236 235 235 234 232 235 242 246 246 252 258 265 269 275 277 266 256 252 250 246 242 241 238 243 245 243 243 244 242 242 242 242 243 244 246 249 249 249 252 251 250
246 240 234 232 232 233 233 233 233 233 234 234 234 237 242 247 252 259 267 273 278 284 281 270 264 257 252 247 247 245 241 244 246 245 243 243 243 245 244 243 243 243 245 247 248 249 249 249 247
243 238 233 231 231 232 232 232 233 232 233 236 236 237 241 247 251 257 270 278 281 282 281 276 272 264 259 255 254 250 246 247 248 249 246 245 247 246 246 246 245 245 245 245 246 247 247 247 246
240 233 229 228 228 231 230 230 233 235 236 238 237 240 243 246 254 261 269 275 278 278 277 275 274 268 265 264 261 257 252 250 250 249 248 248 248 248 247 248 247 247 246 246 247 248 246 246 246
236 227 229 229 229 230 230 230 232 233 235 238 239 242 245 248 257 262 268 275 278 277 275 273 270 270 269 266 262 261 256 252 251 251 249 250 251 250 249 248 249 249 248 247 247 248 247 246 246
233 229 231 228 228 229 230 231 233 233 235 239 242 246 248 253 258 264 270 274 276 277 277 275 271 270 266 263 262 261 258 255 252 251 249 249 253 254 253 252 251 251 251 250 249 248 247 247 247
231 230 229 227 227 229 230 232 234 236 238 243 244 246 253 259 263 267 270 272 276 278 277 277 272 268 263 260 259 260 258 255 253 251 249 250 253 255 254 253 252 253 253 252 251 249 247 248 249
226 226 226 226 227 229 232 234 236 239 242 246 249 250 253 259 263 266 269 271 273 275 275 275 272 265 260 260 258 259 257 257 255 251 250 252 253 253 253 251 251 253 254 254 255 251 251 252 251
222 222 223 224 226 229 232 235 237 241 244 247 251 253 256 260 265 267 268 271 272 273 274 272 268 264 262 260 259 259 260 259 257 254 253 253 255 253 253 253 252 252 254 255 255 255 255 253 252
221 220 222 224 226 229 232 235 239 243 247 251 256 259 261 263 266 269 270 273 274 274 274 272 269 267 266 264 262 262 262 258 255 255 254 254 255 254 253 254 254 252 254 255 256 256 254 254 252
222 221 223 228 227 228 228 235 240 243 247 252 258 261 264 266 267 269 270 273 273 273 273 271 269 269 269 267 265 265 264 261 258 257 256 258 258 257 255 254 254 254 254 255 255 254 253 254 254
221 214 219 229 228 228 227 235 241 245 249 255 259 262 264 266 267 268 270 271 271 271 272 273 271 270 269 269 267 265 265 263 261 259 259 261 260 259 260 256 255 255 254 254 254 253 253 254 254
218 217 224 230 232 231 234 239 244 249 254 259 262 264 265 268 269 269 269 268 270 271 273 273 271 269 269 269 268 266 266 264 263 261 261 261 259 258 256 258 256 254 253 252 252 253 253 253 254
219 220 227 235 236 235 238 243 248 254 260 262 263 264 265 268 268 268 269 270 270 271 272 271 270 268 269 269 270 268 266 265 264 263 262 261 259 258 259 261 259 255 253 252 252 253 252 254 254
221 222 230 237 237 240 246 251 255 259 263 265 265 264 266 268 269 270 271 271 271 272 274 274 271 269 269 269 269 268 267 266 264 264 263 261 261 259 260 260 259 257 255 253 255 252 251 253 254
220 219 228 237 242 248 254 261 261 262 264 266 265 264 265 268 271 273 272 272 274 274 274 275 273 270 268 269 269 269 268 267 265 264 263 263 262 259 259 258 257 256 255 255 253 251 252 253 253
221 225 232 239 244 255 257 265 267 263 263 265 266 267 267 269 273 274 273 273 274 275 276 277 275 274 272 270 268 268 267 266 266 265 265 266 264 263 262 261 259 254 254 253 252 251 250 251 252
222 231 237 243 247 255 262 260 269 267 265 266 268 269 270 272 276 276 275 275 274 276 277 278 276 277 274 272 270 269 268 268 266 266 267 267 265 263 262 260 259 256 254 252 252 250 250 251 253
228 236 244 249 254 258 260 263 269 272 272 271 271 272 273 274 277 277 277 276 276 278 279 279 278 279 277 274 272 271 270 269 267 266 267 266 264 262 263 263 261 259 255 252 253 252 251 251 251
232 234 250 258 258 258 264 267 264 272 275 274 273 273 275 277 279 279 280 280 280 281 280 280 279 279 278 277 274 273 271 270 268 266 266 266 265 263 263 264 261 259 255 252 253 253 251 251 250
234 231 234 244 253 260 274 272 272 276 278 279 278 276 277 279 281 282 283 282 283 283 282 282 279 277 276 276 275 274 272 271 270 269 267 266 265 264 263 262 261 256 254 253 252 252 252 250 249
243 242 243 251 259 267 271 274 277 277 279 282 282 281 281 283 285 286 287 287 285 285 285 285 282 279 277 276 274 272 272 271 271 269 267 267 266 266 265 262 260 256 255 252 251 250 250 251 249
245 251 258 260 262 265 273 280 279 281 284 284 284 285 284 285 287 289 290 290 288 288 288 287 285 281 279 276 273 273 272 272 271 269 268 267 267 267 266 262 261 258 254 252 249 250 251 252 251
253 259 260 259 257 263 273 275 279 285 287 287 285 285 288 289 290 291 291 291 291 292 292 290 288 285 282 280 278 276 275 274 272 270 269 268 267 266 266 262 262 260 258 255 253 252 252 253 253
255 258 261 262 266 267 270 277 281 286 289 291 290 290 293 293 293 293 292 292 293 293 294 293 290 288 286 285 283 281 278 275 273 271 269 267 266 265 264 263 262 259 258 257 255 253 253 254 254
Height
5886 5888 5889 5890 5893 5894 5894 5894 5895 5896 5897 5899 5900 5901 5902 5903 5904 5906 5903 5902 5902 5902 5902 5903 5903 5904 5904 5904 5905 5906 5906 5907 5907 5907 5908 5908 5908 5909 5909 5909 5910 5910 5911 5911 5911 5911 5911 5910 5910
5883 5884 5886 5888 5890 5891 5892 5891 5892 5893 5895 5897 5898 5899 5900 5900 5900 5901 5900 5900 5900 5900 5900 5901 5902 5902 5902 5903 5904 5904 5905 5905 5905 5906 5906 5907 5907 5908 5908 5908 5909 5909 5910 5910 5910 5910 5910 5910 5909
5879 5880 5883 5885 5886 5888 5888 5887 5888 5890 5892 5895 5896 5897 5898 5898 5898 5898 5898 5898 5899 5899 5899 5899 5899 5900 5901 5901 5902 5902 5903 5903 5903 5904 5904 5905 5906 5906 5907 5907 5908 5908 5908 5908 5909 5908 5908 5908 5908
5875 5877 5880 5882 5882 5883 5883 5884 5885 5888 5890 5892 5894 5895 5896 5896 5896 5896 5896 5896 5897 5896 5896 5897 5897 5898 5898 5899 5899 5900 5900 5901 5901 5902 5902 5903 5904 5904 5905 5905 5906 5906 5907 5907 5907 5907 5907 5907 5907
5871 5874 5876 5877 5878 5878 5879 5881 5883 5885 5887 5889 5891 5892 5893 5893 5894 5894 5894 5894 5895 5894 5894 5895 5895 5895 5896 5896 5896 5897 5898 5898 5899 5899 5900 5901 5901 5902 5903 5903 5904 5904 5904 5905 5905 5905 5905 5905 5905
5868 5870 5873 5873 5873 5874 5876 5877 5880 5882 5885 5887 5888 5890 5890 5891 5891 5892 5892 5892 5892 5892 5892 5892 5892 5893 5893 5894 5894 5894 5895 5895 5896 5896 5897 5898 5898 5899 5900 5900 5901 5901 5902 5902 5903 5903 5903 5903 5903
5865 5866 5868 5869 5869 5871 5872 5874 5877 5880 5882 5884 5886 5887 5887 5888 5889 5889 5890 5890 5890 5890 5890 5890 5890 5890 5890 5891 5891 5892 5892 5892 5893 5893 5894 5895 5895 5896 5897 5897 5898 5898 5899 5900 5900 5900 5900 5901 5901
5860 5863 5863 5865 5866 5867 5869 5871 5874 5876 5878 5881 5883 5884 5884 5885 5886 5887 5887 5887 5887 5888 5888 5887 5887 5888 5888 5888 5888 5889 5889 5889 5890 5890 5891 5892 5892 5892 5893 5894 5894 5895 5896 5896 5897 5897 5898 5898 5898
5856 5859 5860 5861 5863 5864 5866 5868 5871 5873 5876 5878 5880 5881 5882 5882 5883 5884 5884 5884 5884 5885 5885 5885 5885 5885 5885 5885 5885 5886 5886 5886 5886 5886 5887 5888 5888 5889 5889 5890 5891 5892 5892 5893 5893 5894 5894 5895 5895
5852 5855 5855 5857 5859 5860 5863 5865 5868 5871 5873 5875 5877 5878 5879 5879 5880 5881 5881 5881 5881 5882 5882 5882 5882 5881 5881 5882 5882 5882 5882 5882 5882 5883 5883 5883 5884 5885 5885 5886 5887 5888 5888 5889 5890 5890 5891 5891 5892
5848 5850 5851 5853 5855 5857 5860 5862 5865 5868 5870 5872 5873 5875 5876 5876 5877 5878 5878 5877 5878 5878 5878 5878 5878 5878 5878 5878 5878 5878 5878 5878 5878 5879 5879 5879 5880 5880 5881 5882 5883 5883 5884 5885 5885 5886 5887 5887 5888
5845 5846 5848 5850 5852 5855 5857 5859 5862 5864 5866 5868 5870 5871 5872 5873 5874 5874 5874 5874 5874 5874 5874 5874 5874 5874 5874 5874 5874 5874 5874 5874 5874 5874 5874 5875 5876 5876 5877 5878 5879 5879 5880 5880 5881 5881 5882 5883 5884
5842 5843 5845 5848 5850 5852 5854 5857 5859 5861 5863 5865 5866 5867 5868 5869 5870 5870 5870 5870 5870 5870 5869 5869 5869 5869 5869 5869 5869 5869 5869 5869 5869 5868 5869 5870 5871 5872 5872 5873 5874 5874 5875 5876 5876 5877 5878 5879 5879
5839 5841 5843 5845 5847 5849 5852 5854 5856 5858 5860 5861 5863 5864 5865 5865 5865 5865 5865 5865 5865 5865 5864 5864 5864 5864 5864 5864 5864 5864 5864 5864 5864 5863 5864 5865 5866 5866 5867 5868 5869 5869 5870 5871 5871 5872 5873 5874 5875
5837 5839 5841 5843 5845 5847 5850 5852 5853 5855 5856 5858 5859 5860 5860 5861 5861 5861 5860 5861 5860 5860 5860 5859 5859 5859 5859 5859 5859 5859 5859 5858 5858 5858 5859 5859 5860 5861 5861 5862 5863 5864 5865 5866 5866 5867 5868 5869 5870
5835 5838 5840 5841 5843 5845 5849 5850 5850 5851 5853 5854 5855 5856 5856 5856 5856 5856 5856 5856 5855 5855 5855 5854 5854 5854 5853 5854 5854 5853 5853 5852 5852 5852 5853 5853 5854 5854 5855 5856 5857 5858 5859 5860 5861 5862 5863 5863 5864
5834 5837 5839 5838 5840 5842 5846 5846 5847 5848 5850 5851 5851 5852 5852 5852 5852 5851 5851 5850 5850 5850 5850 5849 5849 5848 5848 5848 5847 5847 5846 5846 5846 5846 5847 5847 5848 5848 5849 5849 5850 5851 5852 5853 5855 5855 5857 5857 5858
5833 5835 5835 5836 5838 5840 5842 5842 5844 5845 5846 5847 5847 5847 5847 5847 5847 5846 5846 5845 5845 5845 5844 5844 5843 5843 5842 5841 5841 5841 5841 5840 5840 5840 5840 5840 5841 5841 5841 5842 5842 5844 5845 5847 5848 5849 5850 5851 5852
5829 5831 5833 5834 5835 5838 5839 5839 5841 5841 5842 5843 5843 5843 5842 5842 5842 5841 5841 5840 5840 5839 5838 5838 5837 5837 5836 5835 5835 5835 5834 5833 5833 5833 5833 5833 5833 5834 5834 5834 5835 5836 5838 5839 5841 5842 5843 5844 5846
5827 5829 5830 5831 5833 5835 5836 5837 5837 5838 5838 5838 5838 5838 5838 5837 5837 5836 5836 5835 5834 5833 5832 5831 5830 5830 5829 5829 5828 5828 5827 5827 5826 5826 5826 5826 5826 5826 5827 5828 5828 5829 5831 5832 5834 5835 5836 5838 5839
5825 5828 5829 5829 5831 5832 5833 5834 5834 5834 5834 5834 5834 5833 5833 5832 5832 5831 5830 5829 5829 5828 5826 5825 5824 5823 5822 5822 5821 5821 5820 5820 5819 5819 5819 5819 5819 5819 5820 5820 5821 5822 5823 5824 5826 5828 5829 5831 5832
5823 5824 5826 5827 5829 5830 5831 5833 5830 5830 5830 5830 5830 5829 5828 5828 5827 5826 5825 5824 5823 5822 5821 5819 5818 5817 5816 5815 5814 5814 5813 5813 5812 5812 5812 5812 5812 5812 5812 5813 5813 5814 5815 5817 5819 5820 5821 5823 5824
5820 5822 5823 5824 5826 5828 5828 5829 5828 5826 5826 5826 5825 5824 5823 5822 5821 5820 5819 5818 5817 5816 5814 5813 5811 5810 5809 5808 5807 5807 5806 5806 5805 5805 5805 5804 5804 5804 5805 5805 5805 5806 5807 5808 5810 5812 5813 5814 5816
5818 5820 5821 5822 5824 5825 5825 5825 5826 5822 5821 5821 5820 5819 5818 5817 5815 5814 5813 5812 5811 5809 5808 5807 5805 5804 5802 5801 5801 5800 5799 5799 5798 5798 5797 5797 5797 5797 5797 5797 5797 5797 5798 5800 5802 5804 5805 5807 5808
5816 5819 5821 5822 5823 5823 5821 5821 5821 5818 5817 5816 5815 5814 5812 5811 5810 5808 5807 5806 5804 5803 5801 5800 5798 5797 5796 5794 5794 5793 5792 5791 5791 5790 5790 5790 5790 5790 5790 5790 5790 5790 5791 5792 5794 5796 5798 5799 5801
5814 5816 5820 5821 5821 5820 5817 5816 5816 5813 5812 5811 5810 5808 5807 5806 5804 5802 5800 5799 5798 5796 5794 5792 5791 5790 5788 5787 5786 5786 5785 5784 5783 5783 5783 5783 5783 5783 5783 5783 5783 5783 5784 5785 5786 5788 5790 5791 5793
5811 5813 5814 5815 5815 5816 5815 5812 5811 5809 5807 5806 5805 5803 5802 5800 5799 5797 5795 5793 5791 5789 5787 5785 5784 5782 5781 5780 5778 5778 5777 5776 5776 5776 5776 5776 5775 5775 5775 5775 5775 5776 5777 5777 5779 5780 5782 5784 5785
5808 5809 5810 5811 5812 5812 5812 5809 5808 5805 5803 5802 5800 5798 5797 5795 5793 5791 5789 5787 5785 5783 5781 5778 5776 5775 5773 5771 5770 5770 5769 5769 5768 5768 5768 5768 5768 5767 5767 5768 5768 5769 5769 5770 5771 5773 5774 5776 5777
5805 5806 5806 5807 5807 5808 5808 5808 5803 5801 5799 5797 5795 5794 5792 5790 5788 5786 5784 5781 5779 5776 5774 5772 5769 5767 5766 5764 5763 5762 5761 5761 5760 5760 5760 5760 5760 5760 5760 5760 5761 5761 5762 5763 5764 5765 5767 5768 5769
5801 5801 5802 5803 5803 5802 5803 5804 5798 5796 5794 5793 5791 5789 5787 5785 5782 5780 5778 5775 5773 5770 5768 5765 5763 5761 5759 5757 5756 5754 5753 5753 5752 5752 5752 5752 5752 5752 5752 5753 5753 5754 5755 5756 5757 5758 5759 5760 5762